Time,TemperatureF,DewpointF,PressureIn,WindDirection,WindDirectionDegrees,WindSpeedMPH,WindSpeedGustMPH,Humidity,HourlyPrecipIn,Conditions,Clouds,dailyrainin,SoftwareType,DateUTC
2013-10-03 00:01:00,41.6,30.0,29.95,SE,130,0.0,0.0,63,0.00,,---,0.00,VWS V13.00,2013-10-03 06:01:00,
2013-10-03 00:06:00,41.5,29.9,29.95,SE,130,0.0,0.0,63,0.00,,---,0.00,VWS V13.00,2013-10-03 06:06:00,
2013-10-03 00:11:00,41.4,30.1,29.95,SE,129,0.0,0.0,64,0.00,,---,0.00,VWS V13.00,2013-10-03 06:11:00,
2013-10-03 00:16:00,41.3,30.1,29.95,SE,130,0.0,0.0,64,0.00,,---,0.00,VWS V13.00,2013-10-03 06:16:00,
2013-10-03 00:21:00,41.5,28.7,29.95,ESE,103,4.0,6.0,60,0.00,,---,0.00,VWS V13.00,2013-10-03 06:21:00,
2013-10-03 00:26:00,42.0,28.3,29.95,East,101,5.0,11.0,58,0.00,,---,0.00,VWS V13.00,2013-10-03 06:26:00,
2013-10-03 00:31:00,42.3,28.6,29.95,ESE,110,4.0,14.0,58,0.00,,---,0.00,VWS V13.00,2013-10-03 06:31:00,
2013-10-03 00:36:00,42.4,29.9,29.95,ESE,119,4.0,14.0,61,0.00,,---,0.00,VWS V13.00,2013-10-03 06:36:00,
2013-10-03 00:41:00,42.3,30.2,29.95,ESE,107,10.0,20.0,62,0.00,,---,0.00,VWS V13.00,2013-10-03 06:41:00,
2013-10-03 00:46:00,42.3,30.2,29.95,ESE,103,12.0,20.0,62,0.00,,---,0.00,VWS V13.00,2013-10-03 06:46:00,
2013-10-03 00:51:00,42.1,30.4,29.94,ESE,103,13.0,20.0,63,0.00,,---,0.00,VWS V13.00,2013-10-03 06:51:00,
2013-10-03 00:56:00,42.0,30.3,29.94,East,95,11.0,20.0,63,0.00,,---,0.00,VWS V13.00,2013-10-03 06:56:00,
2013-10-03 01:01:00,41.9,30.2,29.94,East,96,13.0,20.0,63,0.00,,---,0.00,VWS V13.00,2013-10-03 07:01:00,
2013-10-03 01:06:00,41.8,30.5,29.94,East,91,14.0,20.0,64,0.00,,---,0.00,VWS V13.00,2013-10-03 07:06:00,
2013-10-03 01:11:00,41.6,30.7,29.94,East,95,9.0,21.0,65,0.00,,---,0.00,VWS V13.00,2013-10-03 07:11:00,
2013-10-03 01:16:00,41.4,30.9,29.94,East,90,13.0,21.0,66,0.00,,---,0.00,VWS V13.00,2013-10-03 07:16:00,
2013-10-03 01:21:00,41.2,31.1,29.94,ENE,76,11.0,21.0,67,0.00,,---,0.00,VWS V13.00,2013-10-03 07:21:00,
2013-10-03 01:26:00,41.1,31.0,29.94,ESE,103,16.0,21.0,67,0.00,,---,0.00,VWS V13.00,2013-10-03 07:26:00,
2013-10-03 01:31:00,41.0,30.9,29.94,East,83,15.0,23.0,67,0.00,,---,0.00,VWS V13.00,2013-10-03 07:31:00,
2013-10-03 01:36:00,40.9,31.2,29.95,East,98,14.0,23.0,68,0.00,,---,0.00,VWS V13.00,2013-10-03 07:36:00,
2013-10-03 01:41:00,40.8,31.4,29.95,ENE,76,18.0,19.0,69,0.00,,---,0.00,VWS V13.00,2013-10-03 07:41:00,
2013-10-03 01:46:00,40.7,31.7,29.95,East,100,13.0,19.0,70,0.00,,---,0.00,VWS V13.00,2013-10-03 07:46:00,
2013-10-03 01:51:00,40.6,31.6,29.94,East,93,7.0,23.0,70,0.00,,---,0.00,VWS V13.00,2013-10-03 07:51:00,
2013-10-03 01:56:00,40.4,31.8,29.94,East,97,15.0,23.0,71,0.00,,---,0.00,VWS V13.00,2013-10-03 07:56:00,
2013-10-03 02:01:00,40.2,31.9,29.94,ESE,105,9.0,23.0,72,0.00,,---,0.00,VWS V13.00,2013-10-03 08:01:00,
2013-10-03 02:06:00,39.9,32.3,29.95,ESE,102,5.0,23.0,74,0.00,,---,0.00,VWS V13.00,2013-10-03 08:06:00,
2013-10-03 02:11:00,39.3,32.4,29.95,East,99,9.0,16.0,76,0.00,,---,0.00,VWS V13.00,2013-10-03 08:11:00,
2013-10-03 02:16:00,38.9,32.6,29.95,East,88,15.0,20.0,78,0.00,,---,0.00,VWS V13.00,2013-10-03 08:16:00,
2013-10-03 02:21:00,38.6,32.7,29.96,East,83,12.0,20.0,79,0.00,,---,0.00,VWS V13.00,2013-10-03 08:21:00,
2013-10-03 02:26:00,38.3,32.7,29.96,East,82,6.0,20.0,80,0.00,,---,0.00,VWS V13.00,2013-10-03 08:26:00,
2013-10-03 02:31:00,38.2,32.6,29.96,East,97,3.0,20.0,80,0.00,,---,0.00,VWS V13.00,2013-10-03 08:31:00,
2013-10-03 02:36:00,38.0,32.4,29.96,East,96,5.0,20.0,80,0.00,,---,0.00,VWS V13.00,2013-10-03 08:36:00,
2013-10-03 02:41:00,37.9,32.3,29.96,East,92,6.0,10.0,80,0.00,,---,0.00,VWS V13.00,2013-10-03 08:41:00,
2013-10-03 02:46:00,37.9,32.3,29.96,East,91,6.0,10.0,80,0.00,,---,0.00,VWS V13.00,2013-10-03 08:46:00,
2013-10-03 02:51:00,37.9,32.3,29.96,East,83,4.0,10.0,80,0.00,,---,0.00,VWS V13.00,2013-10-03 08:51:00,
2013-10-03 02:56:00,37.9,32.3,29.96,East,84,8.0,11.0,80,0.00,,---,0.00,VWS V13.00,2013-10-03 08:56:00,
2013-10-03 03:01:00,38.0,32.4,29.96,East,85,6.0,13.0,80,0.00,,---,0.00,VWS V13.00,2013-10-03 09:01:00,
2013-10-03 03:06:00,38.1,32.2,29.96,East,86,2.0,13.0,79,0.00,,---,0.00,VWS V13.00,2013-10-03 09:06:00,
2013-10-03 03:11:00,38.1,32.2,29.96,East,82,8.0,10.0,79,0.00,,---,0.00,VWS V13.00,2013-10-03 09:11:00,
2013-10-03 03:16:00,38.2,32.0,29.96,ENE,74,5.0,10.0,78,0.00,,---,0.00,VWS V13.00,2013-10-03 09:16:00,
2013-10-03 03:21:00,38.2,31.6,29.96,ENE,74,3.0,10.0,77,0.00,,---,0.00,VWS V13.00,2013-10-03 09:21:00,
2013-10-03 03:26:00,38.2,31.3,29.96,ENE,76,9.0,10.0,76,0.00,,---,0.00,VWS V13.00,2013-10-03 09:26:00,
2013-10-03 03:31:00,38.0,30.8,29.96,East,79,9.0,10.0,75,0.00,,---,0.00,VWS V13.00,2013-10-03 09:31:00,
2013-10-03 03:36:00,38.0,30.8,29.96,East,92,5.0,10.0,75,0.00,,---,0.00,VWS V13.00,2013-10-03 09:36:00,
2013-10-03 03:41:00,37.9,30.4,29.96,East,86,5.0,10.0,74,0.00,,---,0.00,VWS V13.00,2013-10-03 09:41:00,
2013-10-03 03:46:00,37.9,30.7,29.96,East,84,6.0,11.0,75,0.00,,---,0.00,VWS V13.00,2013-10-03 09:46:00,
2013-10-03 03:51:00,37.9,30.4,29.96,East,83,5.0,11.0,74,0.00,,---,0.00,VWS V13.00,2013-10-03 09:51:00,
2013-10-03 03:56:00,37.8,30.3,29.96,East,85,6.0,12.0,74,0.00,,---,0.00,VWS V13.00,2013-10-03 09:56:00,
2013-10-03 04:01:00,37.8,30.6,29.96,East,92,6.0,12.0,75,0.00,,---,0.00,VWS V13.00,2013-10-03 10:01:00,
2013-10-03 04:06:00,37.5,30.6,29.97,ENE,75,9.0,12.0,76,0.00,,---,0.00,VWS V13.00,2013-10-03 10:06:00,
2013-10-03 04:11:00,37.3,30.8,29.97,East,88,10.0,12.0,77,0.00,,---,0.00,VWS V13.00,2013-10-03 10:11:00,
2013-10-03 04:16:00,37.1,30.9,29.97,East,90,5.0,12.0,78,0.00,,---,0.00,VWS V13.00,2013-10-03 10:16:00,
2013-10-03 04:21:00,36.9,30.7,29.97,East,90,4.0,12.0,78,0.00,,---,0.00,VWS V13.00,2013-10-03 10:21:00,
2013-10-03 04:26:00,36.8,30.9,29.98,East,85,6.0,12.0,79,0.00,,---,0.00,VWS V13.00,2013-10-03 10:26:00,
2013-10-03 04:31:00,36.7,31.1,29.98,East,92,4.0,12.0,80,0.00,,---,0.00,VWS V13.00,2013-10-03 10:31:00,
2013-10-03 04:36:00,36.6,31.3,29.98,East,92,5.0,12.0,81,0.00,,---,0.00,VWS V13.00,2013-10-03 10:36:00,
2013-10-03 04:41:00,36.6,31.3,29.99,East,90,3.0,5.0,81,0.00,,---,0.00,VWS V13.00,2013-10-03 10:41:00,
2013-10-03 04:46:00,36.5,31.5,29.99,East,82,2.0,6.0,82,0.00,,---,0.00,VWS V13.00,2013-10-03 10:46:00,
2013-10-03 04:51:00,36.5,31.5,29.99,East,81,0.0,7.0,82,0.00,,---,0.00,VWS V13.00,2013-10-03 10:51:00,
2013-10-03 04:56:00,36.4,31.4,29.99,ENE,78,0.0,7.0,82,0.00,,---,0.00,VWS V13.00,2013-10-03 10:56:00,
2013-10-03 05:01:00,36.4,31.7,29.99,East,80,0.0,7.0,83,0.00,,---,0.00,VWS V13.00,2013-10-03 11:01:00,
2013-10-03 05:06:00,36.3,31.6,30.00,East,91,0.0,7.0,83,0.00,,---,0.00,VWS V13.00,2013-10-03 11:06:00,
2013-10-03 05:11:00,36.1,31.5,30.00,East,97,0.0,0.0,83,0.00,,---,0.00,VWS V13.00,2013-10-03 11:11:00,
2013-10-03 05:16:00,36.0,31.6,30.00,East,96,0.0,0.0,84,0.00,,---,0.00,VWS V13.00,2013-10-03 11:16:00,
2013-10-03 05:21:00,35.9,31.8,30.00,East,95,0.0,0.0,85,0.00,,---,0.00,VWS V13.00,2013-10-03 11:21:00,
2013-10-03 05:26:00,35.8,31.7,30.00,ENE,76,4.0,11.0,85,0.00,,---,0.00,VWS V13.00,2013-10-03 11:26:00,
2013-10-03 05:31:00,35.8,31.7,30.00,East,80,6.0,11.0,85,0.00,,---,0.00,VWS V13.00,2013-10-03 11:31:00,
2013-10-03 05:36:00,35.7,31.9,30.00,East,85,5.0,11.0,86,0.00,,---,0.00,VWS V13.00,2013-10-03 11:36:00,
2013-10-03 05:41:00,35.6,31.8,30.00,East,86,3.0,6.0,86,0.00,,---,0.00,VWS V13.00,2013-10-03 11:41:00,
2013-10-03 05:46:00,35.5,31.7,30.00,East,86,2.0,6.0,86,0.00,,---,0.00,VWS V13.00,2013-10-03 11:46:00,
2013-10-03 05:51:00,35.5,31.7,30.00,East,87,1.0,6.0,86,0.00,,---,0.00,VWS V13.00,2013-10-03 11:51:00,
2013-10-03 05:56:00,35.4,31.9,30.00,East,88,0.0,6.0,87,0.00,,---,0.00,VWS V13.00,2013-10-03 11:56:00,
2013-10-03 06:01:00,35.3,31.8,30.00,East,87,0.0,6.0,87,0.00,,---,0.00,VWS V13.00,2013-10-03 12:01:00,
2013-10-03 06:06:00,35.3,31.8,30.00,East,88,0.0,6.0,87,0.00,,---,0.00,VWS V13.00,2013-10-03 12:06:00,
2013-10-03 06:11:00,35.2,31.7,30.01,East,87,0.0,0.0,87,0.00,,---,0.00,VWS V13.00,2013-10-03 12:11:00,
2013-10-03 06:16:00,35.2,31.7,30.01,East,88,0.0,0.0,87,0.00,,---,0.00,VWS V13.00,2013-10-03 12:16:00,
2013-10-03 06:21:00,35.2,31.7,30.01,East,88,0.0,0.0,87,0.00,,---,0.00,VWS V13.00,2013-10-03 12:21:00,
2013-10-03 06:26:00,35.2,31.4,30.02,East,88,0.0,0.0,86,0.00,,---,0.00,VWS V13.00,2013-10-03 12:26:00,
2013-10-03 06:31:00,35.1,31.3,30.02,East,88,0.0,0.0,86,0.00,,---,0.00,VWS V13.00,2013-10-03 12:31:00,
2013-10-03 06:36:00,35.1,31.3,30.02,East,87,0.0,0.0,86,0.00,,---,0.00,VWS V13.00,2013-10-03 12:36:00,
2013-10-03 06:41:00,35.1,31.3,30.02,East,88,0.0,0.0,86,0.00,,---,0.00,VWS V13.00,2013-10-03 12:41:00,
2013-10-03 06:46:00,35.1,31.3,30.02,East,87,3.0,5.0,86,0.00,,---,0.00,VWS V13.00,2013-10-03 12:46:00,
2013-10-03 06:51:00,35.1,31.0,30.02,SE,125,4.0,6.0,85,0.00,,---,0.00,VWS V13.00,2013-10-03 12:51:00,
2013-10-03 06:56:00,35.1,30.8,30.04,SE,131,4.0,7.0,84,0.00,,---,0.00,VWS V13.00,2013-10-03 12:56:00,
2013-10-03 07:01:00,35.0,30.7,30.04,SE,134,4.0,7.0,84,0.00,,---,0.00,VWS V13.00,2013-10-03 13:01:00,
2013-10-03 07:06:00,34.9,30.6,30.04,ESE,122,2.0,7.0,84,0.00,,---,0.00,VWS V13.00,2013-10-03 13:06:00,
2013-10-03 07:11:00,34.7,30.4,30.04,ESE,119,6.0,7.0,84,0.00,,---,0.00,VWS V13.00,2013-10-03 13:11:00,
2013-10-03 07:16:00,34.4,30.4,30.04,ESE,120,5.0,10.0,85,0.00,,---,0.00,VWS V13.00,2013-10-03 13:16:00,
2013-10-03 07:21:00,34.4,30.4,30.04,ESE,123,5.0,10.0,85,0.00,,---,0.00,VWS V13.00,2013-10-03 13:21:00,
2013-10-03 07:26:00,34.4,30.4,30.05,ESE,117,4.0,10.0,85,0.00,,---,0.00,VWS V13.00,2013-10-03 13:26:00,
2013-10-03 07:31:00,34.3,30.3,30.05,ESE,117,2.0,10.0,85,0.00,,---,0.00,VWS V13.00,2013-10-03 13:31:00,
2013-10-03 07:36:00,34.3,30.3,30.05,ESE,118,0.0,10.0,85,0.00,,---,0.00,VWS V13.00,2013-10-03 13:36:00,
2013-10-03 07:41:00,34.3,30.3,30.06,ESE,122,0.0,3.0,85,0.00,,---,0.00,VWS V13.00,2013-10-03 13:41:00,
2013-10-03 07:46:00,34.2,29.9,30.06,ESE,123,0.0,5.0,84,0.00,,---,0.00,VWS V13.00,2013-10-03 13:46:00,
2013-10-03 07:51:00,34.0,29.7,30.06,ESE,103,6.0,9.0,84,0.00,,---,0.00,VWS V13.00,2013-10-03 13:51:00,
2013-10-03 07:56:00,33.8,29.8,30.07,ESE,111,5.0,10.0,85,0.00,,---,0.00,VWS V13.00,2013-10-03 13:56:00,
2013-10-03 08:01:00,33.5,29.8,30.07,ESE,107,9.0,10.0,86,0.00,,---,0.00,VWS V13.00,2013-10-03 14:01:00,
2013-10-03 08:06:00,33.4,29.7,30.07,ESE,107,2.0,10.0,86,0.00,,---,0.00,VWS V13.00,2013-10-03 14:06:00,
2013-10-03 08:11:00,33.3,29.6,30.10,ESE,117,3.0,7.0,86,0.00,,---,0.00,VWS V13.00,2013-10-03 14:11:00,
2013-10-03 08:16:00,33.2,29.5,30.10,ESE,113,3.0,10.0,86,0.00,,---,0.00,VWS V13.00,2013-10-03 14:16:00,
2013-10-03 08:21:00,33.0,30.9,30.10,ESE,113,9.0,10.0,92,0.00,,---,0.00,VWS V13.00,2013-10-03 14:21:00,
2013-10-03 08:26:00,32.9,29.5,30.10,SE,137,3.0,11.0,87,0.00,,---,0.00,VWS V13.00,2013-10-03 14:26:00,
2013-10-03 08:31:00,32.8,29.4,30.10,SE,128,0.0,11.0,87,0.00,,---,0.00,VWS V13.00,2013-10-03 14:31:00,
2013-10-03 08:36:00,32.7,29.5,30.10,SE,142,4.0,11.0,88,0.00,,---,0.00,VWS V13.00,2013-10-03 14:36:00,
2013-10-03 08:41:00,32.6,29.5,30.11,ESE,117,0.0,9.0,88,0.00,,---,0.00,VWS V13.00,2013-10-03 14:41:00,
2013-10-03 08:46:00,32.5,29.6,30.11,ESE,123,6.0,9.0,89,0.00,,---,0.00,VWS V13.00,2013-10-03 14:46:00,
2013-10-03 08:51:00,32.4,29.5,30.11,ESE,106,5.0,12.0,89,0.00,,---,0.00,VWS V13.00,2013-10-03 14:51:00,
2013-10-03 08:56:00,32.3,29.4,30.13,ESE,107,0.0,12.0,89,0.00,,---,0.00,VWS V13.00,2013-10-03 14:56:00,
2013-10-03 09:01:00,32.2,29.6,30.13,ESE,110,0.0,12.0,90,0.00,,---,0.00,VWS V13.00,2013-10-03 15:01:00,
2013-10-03 09:06:00,32.0,29.4,30.13,ESE,115,0.0,12.0,90,0.00,,---,0.00,VWS V13.00,2013-10-03 15:06:00,
2013-10-03 09:11:00,31.9,29.6,30.14,ESE,118,5.0,7.0,91,0.00,,---,0.00,VWS V13.00,2013-10-03 15:11:00,
2013-10-03 09:16:00,31.7,29.4,30.14,ESE,117,0.0,7.0,91,0.00,,---,0.00,VWS V13.00,2013-10-03 15:16:00,
2013-10-03 09:21:00,31.7,29.4,30.14,ESE,117,0.0,7.0,91,0.00,,---,0.00,VWS V13.00,2013-10-03 15:21:00,
2013-10-03 09:26:00,31.6,29.5,30.14,ESE,117,0.0,7.0,92,0.00,,---,0.00,VWS V13.00,2013-10-03 15:26:00,
2013-10-03 09:31:00,31.6,29.5,30.14,ESE,117,0.0,7.0,92,0.00,,---,0.00,VWS V13.00,2013-10-03 15:31:00,
2013-10-03 09:36:00,31.6,29.5,30.14,ESE,117,0.0,7.0,92,0.00,,---,0.00,VWS V13.00,2013-10-03 15:36:00,
2013-10-03 09:41:00,31.6,29.5,30.15,ESE,117,0.0,0.0,92,0.00,,---,0.00,VWS V13.00,2013-10-03 15:41:00,
2013-10-03 09:46:00,31.5,29.5,30.15,ESE,117,0.0,0.0,92,0.00,,---,0.00,VWS V13.00,2013-10-03 15:46:00,
2013-10-03 09:51:00,31.5,29.7,30.15,ESE,117,0.0,0.0,93,0.00,,---,0.00,VWS V13.00,2013-10-03 15:51:00,
2013-10-03 09:56:00,31.5,29.7,30.15,ESE,117,0.0,0.0,93,0.00,,---,0.00,VWS V13.00,2013-10-03 15:56:00,
2013-10-03 10:00:00,31.5,29.7,30.15,ESE,117,0.0,0.0,93,0.00,,---,0.00,VWS V13.00,2013-10-03 16:00:00,
2013-10-03 10:05:00,31.5,29.7,30.15,ESE,117,0.0,0.0,93,0.00,,---,0.00,VWS V13.00,2013-10-03 16:05:00,
2013-10-03 10:10:00,31.5,29.7,30.16,ESE,117,0.0,0.0,93,0.00,,---,0.00,VWS V13.00,2013-10-03 16:10:00,
2013-10-03 10:15:00,31.5,29.7,30.16,ESE,117,0.0,0.0,93,0.00,,---,0.00,VWS V13.00,2013-10-03 16:15:00,
2013-10-03 10:20:00,31.6,29.8,30.16,ESE,117,0.0,0.0,93,0.00,,---,0.00,VWS V13.00,2013-10-03 16:20:00,
2013-10-03 10:25:00,31.6,29.8,30.16,ESE,117,0.0,0.0,93,0.00,,---,0.00,VWS V13.00,2013-10-03 16:25:00,
2013-10-03 10:30:00,31.6,29.8,30.16,ESE,117,0.0,0.0,93,0.00,,---,0.00,VWS V13.00,2013-10-03 16:30:00,
2013-10-03 10:35:00,31.6,29.8,30.16,ESE,117,0.0,0.0,93,0.00,,---,0.00,VWS V13.00,2013-10-03 16:35:00,
2013-10-03 10:40:00,31.7,29.9,30.16,ESE,117,0.0,0.0,93,0.00,,---,0.00,VWS V13.00,2013-10-03 16:40:00,
2013-10-03 10:45:00,31.7,29.9,30.16,ESE,117,0.0,0.0,93,0.00,,---,0.00,VWS V13.00,2013-10-03 16:45:00,
2013-10-03 10:50:00,31.8,30.0,30.16,ESE,117,0.0,0.0,93,0.00,,---,0.00,VWS V13.00,2013-10-03 16:50:00,
2013-10-03 10:55:00,31.9,30.4,30.17,ESE,117,0.0,0.0,94,0.00,,---,0.00,VWS V13.00,2013-10-03 16:55:00,
2013-10-03 11:00:00,32.0,30.5,30.17,ESE,117,0.0,0.0,94,0.00,,---,0.00,VWS V13.00,2013-10-03 17:00:00,
2013-10-03 11:05:00,32.0,30.5,30.17,ESE,117,0.0,0.0,94,0.00,,---,0.00,VWS V13.00,2013-10-03 17:05:00,
2013-10-03 11:10:00,32.1,30.6,30.17,ESE,117,0.0,0.0,94,0.00,,---,0.00,VWS V13.00,2013-10-03 17:10:00,
2013-10-03 11:15:00,32.1,30.6,30.17,ESE,117,0.0,0.0,94,0.00,,---,0.00,VWS V13.00,2013-10-03 17:15:00,
2013-10-03 11:20:00,32.3,30.8,30.17,ESE,117,0.0,0.0,94,0.00,,---,0.00,VWS V13.00,2013-10-03 17:20:00,
2013-10-03 11:25:00,32.2,30.4,30.18,ESE,117,0.0,2.0,93,0.00,,---,0.00,VWS V13.00,2013-10-03 17:25:00,
2013-10-03 11:30:00,32.1,30.3,30.18,ESE,117,0.0,2.0,93,0.00,,---,0.00,VWS V13.00,2013-10-03 17:30:00,
2013-10-03 11:35:00,32.0,30.2,30.18,ESE,114,0.0,2.0,93,0.00,,---,0.00,VWS V13.00,2013-10-03 17:35:00,
2013-10-03 11:40:00,32.0,30.2,30.18,NNW,348,3.0,6.0,93,0.00,,---,0.00,VWS V13.00,2013-10-03 17:40:00,
2013-10-03 11:45:00,32.1,30.3,30.18,North,360,6.0,8.0,93,0.00,,---,0.00,VWS V13.00,2013-10-03 17:45:00,
2013-10-03 11:50:00,32.0,30.2,30.18,North,355,13.0,16.0,93,0.00,,---,0.00,VWS V13.00,2013-10-03 17:50:00,
2013-10-03 11:55:00,32.2,30.4,30.17,North,360,9.0,16.0,93,0.01,,---,0.01,VWS V13.00,2013-10-03 17:55:00,
2013-10-03 12:00:00,32.3,30.8,30.17,North,5,15.0,16.0,94,0.01,,---,0.01,VWS V13.00,2013-10-03 18:00:00,
2013-10-03 12:05:00,32.4,30.6,30.17,North,360,7.0,16.0,93,0.02,,---,0.02,VWS V13.00,2013-10-03 18:05:00,
2013-10-03 12:10:00,32.5,30.7,30.17,North,5,13.0,17.0,93,0.03,,---,0.03,VWS V13.00,2013-10-03 18:10:00,
2013-10-03 12:15:00,32.6,30.8,30.17,North,9,10.0,17.0,93,0.03,,---,0.03,VWS V13.00,2013-10-03 18:15:00,
2013-10-03 12:20:00,32.9,31.1,30.17,North,355,11.0,17.0,93,0.04,,---,0.04,VWS V13.00,2013-10-03 18:20:00,
2013-10-03 12:25:00,32.9,30.8,30.17,North,5,13.0,20.0,92,0.04,,---,0.04,VWS V13.00,2013-10-03 18:25:00,
2013-10-03 12:30:00,33.0,30.9,30.17,North,355,14.0,20.0,92,0.05,,---,0.05,VWS V13.00,2013-10-03 18:30:00,
2013-10-03 12:35:00,33.1,31.0,30.17,North,351,17.0,20.0,92,0.06,,---,0.06,VWS V13.00,2013-10-03 18:35:00,
2013-10-03 12:40:00,33.2,31.1,30.17,North,360,11.0,18.0,92,0.06,,---,0.06,VWS V13.00,2013-10-03 18:40:00,
2013-10-03 12:45:00,33.2,31.1,30.17,NNW,344,13.0,19.0,92,0.07,,---,0.07,VWS V13.00,2013-10-03 18:45:00,
2013-10-03 12:50:00,33.1,30.8,30.17,North,5,11.0,19.0,91,0.07,,---,0.07,VWS V13.00,2013-10-03 18:50:00,
2013-10-03 12:55:00,33.0,30.7,30.18,North,11,11.0,19.0,91,0.07,,---,0.07,VWS V13.00,2013-10-03 18:55:00,
2013-10-03 13:00:00,33.0,30.7,30.18,NNE,14,12.0,19.0,91,0.07,,---,0.07,VWS V13.00,2013-10-03 19:00:00,
2013-10-03 13:05:00,33.0,30.7,30.18,North,355,15.0,19.0,91,0.08,,---,0.08,VWS V13.00,2013-10-03 19:05:00,
2013-10-03 13:10:00,33.0,30.7,30.18,North,360,12.0,19.0,91,0.06,,---,0.08,VWS V13.00,2013-10-03 19:10:00,
2013-10-03 13:15:00,33.0,30.7,30.18,NNW,346,11.0,20.0,91,0.06,,---,0.08,VWS V13.00,2013-10-03 19:15:00,
2013-10-03 13:20:00,33.2,30.9,30.18,North,355,7.0,20.0,91,0.06,,---,0.08,VWS V13.00,2013-10-03 19:20:00,
2013-10-03 13:25:00,33.3,31.0,30.19,North,9,12.0,20.0,91,0.07,,---,0.09,VWS V13.00,2013-10-03 19:25:00,
2013-10-03 13:30:00,33.4,31.1,30.19,North,355,10.0,20.0,91,0.07,,---,0.09,VWS V13.00,2013-10-03 19:30:00,
2013-10-03 13:35:00,33.3,30.7,30.19,NNW,344,15.0,20.0,90,0.07,,---,0.09,VWS V13.00,2013-10-03 19:35:00,
2013-10-03 13:40:00,33.1,30.5,30.19,North,5,17.0,19.0,90,0.03,,---,0.09,VWS V13.00,2013-10-03 19:40:00,
2013-10-03 13:45:00,33.1,30.5,30.19,NNW,340,13.0,20.0,90,0.03,,---,0.09,VWS V13.00,2013-10-03 19:45:00,
2013-10-03 13:50:00,33.2,30.6,30.19,NNW,344,12.0,20.0,90,0.04,,---,0.10,VWS V13.00,2013-10-03 19:50:00,
2013-10-03 13:55:00,33.4,30.8,30.21,North,355,13.0,20.0,90,0.04,,---,0.10,VWS V13.00,2013-10-03 19:55:00,
2013-10-03 14:00:00,33.2,30.6,30.21,North,360,10.0,20.0,90,0.04,,---,0.10,VWS V13.00,2013-10-03 20:00:00,
2013-10-03 14:05:00,33.1,30.5,30.21,North,360,16.0,20.0,90,0.04,,---,0.10,VWS V13.00,2013-10-03 20:05:00,
2013-10-03 14:10:00,32.7,30.1,30.22,North,360,12.0,18.0,90,0.02,,---,0.10,VWS V13.00,2013-10-03 20:10:00,
2013-10-03 14:15:00,32.4,30.1,30.22,North,355,13.0,21.0,91,0.02,,---,0.10,VWS V13.00,2013-10-03 20:15:00,
2013-10-03 14:20:00,32.2,29.9,30.22,North,5,8.0,21.0,91,0.02,,---,0.10,VWS V13.00,2013-10-03 20:20:00,
2013-10-03 14:25:00,32.2,30.1,30.22,NNE,19,10.0,21.0,92,0.02,,---,0.10,VWS V13.00,2013-10-03 20:25:00,
2013-10-03 14:30:00,32.3,30.2,30.22,North,360,11.0,21.0,92,0.03,,---,0.11,VWS V13.00,2013-10-03 20:30:00,
2013-10-03 14:35:00,32.4,30.3,30.22,North,355,11.0,21.0,92,0.03,,---,0.11,VWS V13.00,2013-10-03 20:35:00,
2013-10-03 14:40:00,32.5,30.2,30.24,North,9,8.0,12.0,91,0.02,,---,0.11,VWS V13.00,2013-10-03 20:40:00,
2013-10-03 14:45:00,32.5,30.2,30.24,NNW,348,10.0,12.0,91,0.02,,---,0.11,VWS V13.00,2013-10-03 20:45:00,
2013-10-03 14:50:00,32.5,30.2,30.24,North,360,9.0,13.0,91,0.02,,---,0.11,VWS V13.00,2013-10-03 20:50:00,
2013-10-03 14:55:00,32.5,30.4,30.26,North,355,11.0,13.0,92,0.02,,---,0.11,VWS V13.00,2013-10-03 20:55:00,
2013-10-03 15:00:00,32.5,30.2,30.26,North,355,6.0,13.0,91,0.02,,---,0.11,VWS V13.00,2013-10-03 21:00:00,
2013-10-03 15:05:00,32.6,30.5,30.26,NNE,15,8.0,13.0,92,0.02,,---,0.11,VWS V13.00,2013-10-03 21:05:00,
2013-10-03 15:10:00,32.6,30.3,30.26,North,355,7.0,14.0,91,0.01,,---,0.11,VWS V13.00,2013-10-03 21:10:00,
2013-10-03 15:15:00,32.5,30.2,30.26,North,360,9.0,16.0,91,0.01,,---,0.11,VWS V13.00,2013-10-03 21:15:00,
2013-10-03 15:20:00,32.6,30.3,30.26,North,360,10.0,16.0,91,0.01,,---,0.11,VWS V13.00,2013-10-03 21:20:00,
2013-10-03 15:25:00,32.7,30.4,30.26,North,5,12.0,16.0,91,0.01,,---,0.11,VWS V13.00,2013-10-03 21:25:00,
2013-10-03 15:30:00,33.0,30.7,30.26,NNE,14,7.0,16.0,91,0.01,,---,0.11,VWS V13.00,2013-10-03 21:30:00,
2013-10-03 15:35:00,33.2,30.9,30.26,North,349,4.0,16.0,91,0.01,,---,0.11,VWS V13.00,2013-10-03 21:35:00,
2013-10-03 15:40:00,33.5,31.2,30.26,NNE,13,10.0,11.0,91,0.00,,---,0.11,VWS V13.00,2013-10-03 21:40:00,
2013-10-03 15:45:00,33.6,31.0,30.26,North,10,6.0,14.0,90,0.00,,---,0.11,VWS V13.00,2013-10-03 21:45:00,
2013-10-03 15:50:00,33.7,31.1,30.26,North,5,11.0,14.0,90,0.00,,---,0.11,VWS V13.00,2013-10-03 21:50:00,
2013-10-03 15:55:00,33.7,31.1,30.26,North,9,9.0,15.0,90,0.00,,---,0.11,VWS V13.00,2013-10-03 21:55:00,
2013-10-03 16:00:00,33.7,31.1,30.26,North,9,4.0,15.0,90,0.00,,---,0.11,VWS V13.00,2013-10-03 22:00:00,
2013-10-03 16:05:00,33.6,31.0,30.26,North,360,9.0,16.0,90,0.00,,---,0.11,VWS V13.00,2013-10-03 22:05:00,
2013-10-03 16:10:00,33.7,31.1,30.26,North,350,5.0,10.0,90,0.00,,---,0.11,VWS V13.00,2013-10-03 22:10:00,
2013-10-03 16:15:00,33.9,31.6,30.26,NNE,15,7.0,11.0,91,0.00,,---,0.11,VWS V13.00,2013-10-03 22:15:00,
2013-10-03 16:20:00,34.0,31.4,30.26,North,360,9.0,13.0,90,0.00,,---,0.11,VWS V13.00,2013-10-03 22:20:00,
2013-10-03 16:25:00,34.1,31.5,30.26,North,9,3.0,14.0,90,0.00,,---,0.11,VWS V13.00,2013-10-03 22:25:00,
2013-10-03 16:30:00,34.0,31.4,30.26,NNW,342,7.0,14.0,90,0.00,,---,0.11,VWS V13.00,2013-10-03 22:30:00,
2013-10-03 16:35:00,33.9,31.3,30.26,NNE,12,11.0,14.0,90,0.00,,---,0.11,VWS V13.00,2013-10-03 22:35:00,
2013-10-03 16:40:00,33.9,31.3,30.27,North,350,6.0,11.0,90,0.00,,---,0.11,VWS V13.00,2013-10-03 22:40:00,
2013-10-03 16:45:00,33.9,31.6,30.27,NNW,340,5.0,14.0,91,0.01,,---,0.12,VWS V13.00,2013-10-03 22:45:00,
2013-10-03 16:50:00,33.9,31.3,30.27,North,360,9.0,14.0,90,0.01,,---,0.12,VWS V13.00,2013-10-03 22:50:00,
2013-10-03 16:55:00,34.1,31.5,30.28,North,9,10.0,15.0,90,0.01,,---,0.12,VWS V13.00,2013-10-03 22:55:00,
2013-10-03 17:00:00,34.2,31.6,30.28,North,360,7.0,15.0,90,0.01,,---,0.12,VWS V13.00,2013-10-03 23:00:00,
2013-10-03 17:05:00,34.3,31.4,30.28,North,360,11.0,15.0,89,0.01,,---,0.12,VWS V13.00,2013-10-03 23:05:00,
2013-10-03 17:10:00,34.4,30.9,30.29,North,355,11.0,13.0,87,0.01,,---,0.12,VWS V13.00,2013-10-03 23:10:00,
2013-10-03 17:15:00,34.4,30.9,30.29,North,355,5.0,13.0,87,0.01,,---,0.12,VWS V13.00,2013-10-03 23:15:00,
2013-10-03 17:20:00,34.4,30.9,30.29,North,360,7.0,13.0,87,0.01,,---,0.12,VWS V13.00,2013-10-03 23:20:00,
2013-10-03 17:25:00,34.4,30.6,30.28,North,360,14.0,14.0,86,0.01,,---,0.12,VWS V13.00,2013-10-03 23:25:00,
2013-10-03 17:30:00,34.4,30.1,30.28,NNE,26,5.0,15.0,84,0.01,,---,0.12,VWS V13.00,2013-10-03 23:30:00,
2013-10-03 17:35:00,34.4,30.4,30.28,North,11,5.0,15.0,85,0.01,,---,0.12,VWS V13.00,2013-10-03 23:35:00,
2013-10-03 17:40:00,34.4,30.4,30.29,NNE,14,4.0,11.0,85,0.01,,---,0.12,VWS V13.00,2013-10-03 23:40:00,
2013-10-03 17:45:00,34.4,30.4,30.29,NNE,13,10.0,12.0,85,0.01,,---,0.12,VWS V13.00,2013-10-03 23:45:00,
2013-10-03 17:50:00,34.4,30.4,30.29,NNE,22,10.0,13.0,85,0.01,,---,0.12,VWS V13.00,2013-10-03 23:50:00,
2013-10-03 17:55:00,34.4,30.4,30.31,North,360,9.0,13.0,85,0.01,,---,0.12,VWS V13.00,2013-10-03 23:55:00,
2013-10-03 18:00:00,34.5,30.5,30.31,NNE,15,12.0,14.0,85,0.01,,---,0.12,VWS V13.00,2013-10-04 00:00:00,
2013-10-03 18:05:00,34.4,30.1,30.31,NNE,17,7.0,15.0,84,0.01,,---,0.12,VWS V13.00,2013-10-04 00:05:00,
2013-10-03 18:10:00,34.4,30.1,30.32,NNE,15,10.0,14.0,84,0.00,,---,0.12,VWS V13.00,2013-10-04 00:10:00,
2013-10-03 18:15:00,34.4,30.1,30.32,North,9,4.0,14.0,84,0.00,,---,0.12,VWS V13.00,2013-10-04 00:15:00,
2013-10-03 18:20:00,34.4,30.1,30.32,NNW,346,0.0,14.0,84,0.00,,---,0.12,VWS V13.00,2013-10-04 00:20:00,
2013-10-03 18:25:00,34.4,30.1,30.32,NNE,22,7.0,14.0,84,0.00,,---,0.12,VWS V13.00,2013-10-04 00:25:00,
2013-10-03 18:30:00,34.4,30.1,30.32,NNE,14,7.0,14.0,84,0.00,,---,0.12,VWS V13.00,2013-10-04 00:30:00,
2013-10-03 18:35:00,34.4,29.8,30.32,NNE,17,10.0,14.0,83,0.00,,---,0.12,VWS V13.00,2013-10-04 00:35:00,
2013-10-03 18:40:00,34.4,29.8,30.32,NNE,12,6.0,11.0,83,0.00,,---,0.12,VWS V13.00,2013-10-04 00:40:00,
2013-10-03 18:45:00,34.4,29.8,30.32,NNE,17,7.0,12.0,83,0.00,,---,0.12,VWS V13.00,2013-10-04 00:45:00,
2013-10-03 18:50:00,34.3,29.7,30.32,North,9,11.0,12.0,83,0.00,,---,0.12,VWS V13.00,2013-10-04 00:50:00,
2013-10-03 18:55:00,34.3,29.7,30.33,NNE,13,6.0,13.0,83,0.00,,---,0.12,VWS V13.00,2013-10-04 00:55:00,
2013-10-03 19:01:00,34.3,30.0,30.33,North,360,5.0,13.0,84,0.00,,---,0.12,VWS V13.00,2013-10-04 01:01:00,
2013-10-03 19:06:00,34.2,29.6,30.33,NNE,17,5.0,13.0,83,0.00,,---,0.12,VWS V13.00,2013-10-04 01:06:00,
2013-10-03 19:11:00,34.1,29.8,30.34,North,5,3.0,11.0,84,0.00,,---,0.12,VWS V13.00,2013-10-04 01:11:00,
2013-10-03 19:15:00,34.1,29.8,30.34,NNE,13,4.0,11.0,84,0.00,,---,0.12,VWS V13.00,2013-10-04 01:15:00,
2013-10-03 19:20:00,34.1,29.8,30.34,North,11,3.0,11.0,84,0.00,,---,0.12,VWS V13.00,2013-10-04 01:20:00,
2013-10-03 19:25:00,34.0,29.7,30.34,North,5,6.0,11.0,84,0.00,,---,0.12,VWS V13.00,2013-10-04 01:25:00,
2013-10-03 19:30:00,33.9,29.6,30.34,North,360,5.0,11.0,84,0.00,,---,0.12,VWS V13.00,2013-10-04 01:30:00,
2013-10-03 19:35:00,33.9,29.6,30.34,North,355,4.0,11.0,84,0.00,,---,0.12,VWS V13.00,2013-10-04 01:35:00,
2013-10-03 19:40:00,33.9,29.9,30.35,North,355,2.0,6.0,85,0.00,,---,0.12,VWS V13.00,2013-10-04 01:40:00,
2013-10-03 19:45:00,33.9,29.9,30.35,North,355,1.0,6.0,85,0.00,,---,0.12,VWS V13.00,2013-10-04 01:45:00,
2013-10-03 19:50:00,33.9,29.9,30.35,North,355,3.0,6.0,85,0.00,,---,0.12,VWS V13.00,2013-10-04 01:50:00,
2013-10-03 19:55:00,33.8,30.1,30.37,North,355,3.0,6.0,86,0.00,,---,0.12,VWS V13.00,2013-10-04 01:55:00,
2013-10-03 20:00:00,33.7,30.0,30.37,NNW,338,5.0,7.0,86,0.00,,---,0.12,VWS V13.00,2013-10-04 02:00:00,
2013-10-03 20:05:00,33.7,30.0,30.37,NNW,334,2.0,7.0,86,0.00,,---,0.12,VWS V13.00,2013-10-04 02:05:00,
2013-10-03 20:10:00,33.6,29.9,30.38,NNW,328,4.0,6.0,86,0.00,,---,0.12,VWS V13.00,2013-10-04 02:10:00,
2013-10-03 20:15:00,33.6,30.1,30.38,NNW,327,1.0,6.0,87,0.00,,---,0.12,VWS V13.00,2013-10-04 02:15:00,
2013-10-03 20:20:00,33.5,30.0,30.38,NNW,328,2.0,6.0,87,0.00,,---,0.12,VWS V13.00,2013-10-04 02:20:00,
2013-10-03 20:25:00,33.5,30.0,30.38,NNW,327,0.0,6.0,87,0.00,,---,0.12,VWS V13.00,2013-10-04 02:25:00,
2013-10-03 20:30:00,33.5,30.0,30.38,NNW,328,5.0,6.0,87,0.00,,---,0.12,VWS V13.00,2013-10-04 02:30:00,
2013-10-03 20:35:00,33.4,30.0,30.38,NNW,340,3.0,7.0,87,0.00,,---,0.12,VWS V13.00,2013-10-04 02:35:00,
2013-10-03 20:40:00,33.4,29.7,30.37,NNW,346,7.0,7.0,86,0.00,,---,0.12,VWS V13.00,2013-10-04 02:40:00,
2013-10-03 20:45:00,33.5,29.8,30.37,North,355,5.0,9.0,86,0.00,,---,0.12,VWS V13.00,2013-10-04 02:45:00,
2013-10-03 20:50:00,33.6,29.6,30.37,North,360,5.0,9.0,85,0.00,,---,0.12,VWS V13.00,2013-10-04 02:50:00,
2013-10-03 20:55:00,33.6,29.6,30.37,North,360,7.0,9.0,85,0.00,,---,0.12,VWS V13.00,2013-10-04 02:55:00,
2013-10-03 21:00:00,33.6,29.6,30.37,North,9,4.0,9.0,85,0.00,,---,0.12,VWS V13.00,2013-10-04 03:00:00,
2013-10-03 21:05:00,33.6,29.6,30.37,North,9,0.0,9.0,85,0.00,,---,0.12,VWS V13.00,2013-10-04 03:05:00,
2013-10-03 21:10:00,33.6,29.6,30.39,North,360,4.0,6.0,85,0.00,,---,0.12,VWS V13.00,2013-10-04 03:10:00,
2013-10-03 21:15:00,33.6,29.6,30.39,North,5,0.0,6.0,85,0.00,,---,0.12,VWS V13.00,2013-10-04 03:15:00,
2013-10-03 21:20:00,33.6,29.6,30.39,North,5,1.0,6.0,85,0.00,,---,0.12,VWS V13.00,2013-10-04 03:20:00,
2013-10-03 21:25:00,33.7,29.4,30.40,North,5,4.0,6.0,84,0.00,,---,0.12,VWS V13.00,2013-10-04 03:25:00,
2013-10-03 21:30:00,33.7,29.4,30.40,North,360,3.0,6.0,84,0.00,,---,0.12,VWS V13.00,2013-10-04 03:30:00,
2013-10-03 21:35:00,33.7,29.7,30.40,North,5,4.0,6.0,85,0.00,,---,0.12,VWS V13.00,2013-10-04 03:35:00,
2013-10-03 21:40:00,33.7,29.4,30.40,North,360,0.0,3.0,84,0.00,,---,0.12,VWS V13.00,2013-10-04 03:40:00,
2013-10-03 21:45:00,33.8,29.5,30.40,North,5,0.0,3.0,84,0.00,,---,0.12,VWS V13.00,2013-10-04 03:45:00,
2013-10-03 21:50:00,33.8,29.2,30.40,North,360,3.0,5.0,83,0.00,,---,0.12,VWS V13.00,2013-10-04 03:50:00,
2013-10-03 21:55:00,33.9,29.6,30.40,North,360,4.0,5.0,84,0.00,,---,0.12,VWS V13.00,2013-10-04 03:55:00,
2013-10-03 22:00:00,33.8,29.5,30.40,North,360,1.0,5.0,84,0.00,,---,0.12,VWS V13.00,2013-10-04 04:00:00,
2013-10-03 22:31:00,33.5,29.8,30.42,North,360,0.0,4.0,86,0.00,,---,0.12,VWS V13.00,2013-10-04 04:31:00,
2013-10-03 22:33:00,33.5,29.8,30.42,North,360,0.0,4.0,86,0.00,,---,0.12,VWS V13.00,2013-10-04 04:33:00,
2013-10-03 22:34:00,33.4,30.0,30.42,North,360,0.0,4.0,87,0.00,,---,0.12,VWS V13.00,2013-10-04 04:34:00,
2013-10-03 22:35:00,33.4,30.0,30.42,North,360,0.0,4.0,87,0.00,,---,0.12,VWS V13.00,2013-10-04 04:35:00,
2013-10-03 22:38:00,33.3,29.9,30.43,North,360,0.0,0.0,87,0.00,,---,0.12,VWS V13.00,2013-10-04 04:38:00,
2013-10-03 22:42:00,33.2,29.8,30.43,North,360,0.0,0.0,87,0.00,,---,0.12,VWS V13.00,2013-10-04 04:42:00,
2013-10-03 22:43:00,33.2,29.8,30.43,North,360,0.0,0.0,87,0.00,,---,0.12,VWS V13.00,2013-10-04 04:43:00,
2013-10-03 22:44:00,33.2,29.8,30.43,North,360,0.0,0.0,87,0.00,,---,0.12,VWS V13.00,2013-10-04 04:44:00,
2013-10-03 22:45:00,33.2,29.8,30.43,North,360,0.0,0.0,87,0.00,,---,0.12,VWS V13.00,2013-10-04 04:45:00,
2013-10-03 22:46:00,33.2,29.8,30.43,North,360,0.0,0.0,87,0.00,,---,0.12,VWS V13.00,2013-10-04 04:46:00,
2013-10-03 22:49:00,33.1,29.9,30.43,North,360,0.0,0.0,88,0.00,,---,0.12,VWS V13.00,2013-10-04 04:49:00,
2013-10-03 22:50:00,33.1,29.9,30.43,North,360,0.0,0.0,88,0.00,,---,0.12,VWS V13.00,2013-10-04 04:50:00,
2013-10-03 22:52:00,33.0,29.8,30.43,North,360,0.0,0.0,88,0.00,,---,0.12,VWS V13.00,2013-10-04 04:52:00,
2013-10-03 22:55:00,33.0,29.8,30.43,North,360,0.0,0.0,88,0.00,,---,0.12,VWS V13.00,2013-10-04 04:55:00,
2013-10-03 22:57:00,33.0,29.8,30.43,North,360,0.0,0.0,88,0.00,,---,0.12,VWS V13.00,2013-10-04 04:57:00,
2013-10-03 22:59:00,32.9,30.0,30.43,North,360,1.0,3.0,89,0.00,,---,0.12,VWS V13.00,2013-10-04 04:59:00,
2013-10-03 23:01:00,32.9,30.0,30.43,North,360,0.0,3.0,89,0.00,,---,0.12,VWS V13.00,2013-10-04 05:01:00,
2013-10-03 23:03:00,32.9,30.0,30.43,North,360,0.0,3.0,89,0.00,,---,0.12,VWS V13.00,2013-10-04 05:03:00,
2013-10-03 23:04:00,32.9,30.0,30.43,North,360,0.0,3.0,89,0.00,,---,0.12,VWS V13.00,2013-10-04 05:04:00,
2013-10-03 23:05:00,32.9,30.0,30.43,North,360,0.0,3.0,89,0.00,,---,0.12,VWS V13.00,2013-10-04 05:05:00,
2013-10-03 23:07:00,32.8,29.9,30.43,North,360,0.0,3.0,89,0.00,,---,0.12,VWS V13.00,2013-10-04 05:07:00,
2013-10-03 23:10:00,32.8,30.2,30.43,North,360,0.0,0.0,90,0.00,,---,0.12,VWS V13.00,2013-10-04 05:10:00,
2013-10-03 23:11:00,32.8,30.2,30.43,North,355,0.0,0.0,90,0.00,,---,0.12,VWS V13.00,2013-10-04 05:11:00,
2013-10-03 23:14:00,32.7,30.1,30.43,North,355,0.0,0.0,90,0.00,,---,0.12,VWS V13.00,2013-10-04 05:14:00,
2013-10-03 23:16:00,32.6,30.3,30.43,North,355,0.0,0.0,91,0.00,,---,0.12,VWS V13.00,2013-10-04 05:16:00,
2013-10-03 23:20:00,32.6,30.3,30.43,North,355,0.0,0.0,91,0.00,,---,0.12,VWS V13.00,2013-10-04 05:20:00,
2013-10-03 23:25:00,32.5,30.2,30.42,North,355,0.0,0.0,91,0.00,,---,0.12,VWS V13.00,2013-10-04 05:25:00,
2013-10-03 23:31:00,32.5,30.2,30.42,North,355,0.0,0.0,91,0.00,,---,0.12,VWS V13.00,2013-10-04 05:31:00,
2013-10-03 23:36:00,32.4,30.1,30.42,North,355,0.0,0.0,91,0.00,,---,0.12,VWS V13.00,2013-10-04 05:36:00,
2013-10-03 23:41:00,32.3,30.2,30.42,North,355,0.0,0.0,92,0.00,,---,0.00,VWS V13.00,2013-10-04 05:41:00,
2013-10-03 23:46:00,32.3,30.2,30.42,North,355,0.0,0.0,92,0.00,,---,0.00,VWS V13.00,2013-10-04 05:46:00,
2013-10-03 23:51:00,32.2,30.1,30.42,North,355,0.0,0.0,92,0.00,,---,0.00,VWS V13.00,2013-10-04 05:51:00,
2013-10-03 23:56:00,32.2,30.1,30.42,North,355,0.0,0.0,92,0.00,,---,0.00,VWS V13.00,2013-10-04 05:56:00,